Regional Weather Roundup
Issued by NWS Sterling, VA

Home | Current Version | Previous Version | Graphics & Text | Print | Product List | Glossary On
Versions: 1 2 3 4 5 6 7 8 9 10 11 12 13 14 15 16 17 18 19 20 21 22 23 24 25 26 27 28 29 30 31 32 33 34 35 36 37 38 39 40 41 42 43 44 45 46 47 48 49 50
000
ASUS41 KLWX 172010
RWRLWX

REGIONAL WEATHER ROUNDUP
NATIONAL WEATHER SERVICE BALTIMORE MD/WASHINGTON DC
300 PM EST WED DEC 17 2014

Note: "FAIR" indicates few or no clouds below 12,000 feet
with no significant weather and/or obstructions to visibility.
 TC=TEMPERATURE CELSIUS

 * =Non NWS site. Station does not report precipitation (e.g. rain,
    snow, etc.), thunder, or fog.

DCZ001-MDZ009-015-VAZ040>042-051-053>054-172100-
WASHINGTON METRO

CITY           SKY/WX    TMP DP  RH WIND       PRES   REMARKS
WASHINGTON NAT MOSUNNY   55  30  38 NW14      29.98R
DULLES         MOSUNNY   49  30  48 NW14G22   29.99R
ANDREWS AFB    SUNNY     52  31  45 NW16      29.96S
FT BELVOIR     MOSUNNY   53  32  44 VRB7      29.98R
QUANTICO       MOSUNNY   55  35  47 NW7       29.98S
COLLEGE PARK*  SUNNY     52  30  43 W12G24    29.97R
LEESBURG*      SUNNY     50  32  50 MISG      29.99R
MANASSAS*      PTSUNNY   52  36  54 N8        29.98R
GAITHERSBURG*  SUNNY     48  28  46 NW21G30   30.00S

$$

MDZ006>007-011-014-172100-
BALTIMORE METRO

CITY           SKY/WX    TMP DP  RH WIND       PRES   REMARKS
BWI AIRPORT    MOSUNNY   51  29  42 NW9G20    29.96R
MD SCIENCE CTR   N/A     48  28  46 MISG      29.93F
MARTIN STATE   MOSUNNY   52  34  50 W20G28    29.97R
ANNAPOLIS      SUNNY     52  29  41 NW13G23   29.96R
FORT MEADE*    SUNNY     52  32  46 W9        29.98S

$$

MDZ012-015-019>023-172100-
MARYLAND EASTERN SHORE

CITY           SKY/WX    TMP DP  RH WIND       PRES   REMARKS
OCEAN CITY     PTSUNNY   53  36  52 NW15G21   29.93R
SALISBURY      MOSUNNY   54  36  50 W13G21    29.94R
BAY BRIDGE AP*   N/A     52  30  43 W8        29.96R
CAMBRIDGE*     SUNNY     55  34  44 NW10G16   29.94S
EASTON*        MOSUNNY   55  36  47 NW13G22   29.98S

$$

MDZ017>025-172100-
SOUTHERN MARYLAND

CITY           SKY/WX    TMP DP  RH WIND       PRES   REMARKS
PATUXENT RIVER PTSUNNY   57  36  45 NW12      29.95R
ST INIGOES     MOSUNNY   55  38  52 W7        29.95S
LEONARDTOWN*   MOSUNNY   55  36  47 W9        29.96R

$$

MDZ003>005-172100-
NORTH CENTRAL MARYLAND

CITY           SKY/WX    TMP DP  RH WIND       PRES   REMARKS
FREDERICK*     MOSUNNY   48  27  43 NW13      30.02R
HAGERSTOWN APT CLOUDY    46  26  45 W18       29.99R
WESTMINSTER*   MOSUNNY   45  28  53 W17G26    29.96R

$$

MDZ501>502-172100-
WESTERN MARYLAND

CITY           SKY/WX    TMP DP  RH WIND       PRES   REMARKS
OAKLAND*       CLOUDY    28 N/A N/A W16G26    29.96R WCI  17
CUMBERLAND*    CLOUDY    41  27  56 W12G20    30.08R

$$

VAZ025>031-172100-
SHENANDOAH VALLEY

CITY           SKY/WX    TMP DP  RH WIND       PRES   REMARKS
WINCHESTER*    SUNNY     46  23  39 NW16      29.99R
FRONT ROYAL*   FAIR      50  28  43 NW10      29.97S
LURAY*         FAIR      54  28  37 NW8       29.98F
NEW MARKET*    FAIR      49  24  37 W6        29.98S
STAUNTON*      SUNNY     52  22  31 W7        29.99S
WAYNESBORO*    FAIR      49  26  40 SW8       29.98S

$$

WVZ021-048>050-054>055-172100-
EASTERN WEST VIRGINIA PANHANDLE

CITY           SKY/WX    TMP DP  RH WIND       PRES   REMARKS
MARTINSBURG    CLOUDY    45  24  43 W13G24    30.01R
PETERSBURG*    MOSUNNY   42  22  44 W6        30.05R

$$

VAZ036>039-050-172100-
CENTRAL FOOTHILLS

CITY           SKY/WX    TMP DP  RH WIND       PRES   REMARKS
CHARLOTTESVILL SUNNY     56  27  32 VRB3      29.97S
CULPEPER*      SUNNY     57  34  41 W3        29.97S
ORANGE*        SUNNY     55  30  38 W5        29.98S
GORDONSVILLE*  FAIR      56  32  40 SW7       29.96F
WARRENTON*     FAIR      54  37  52 NW8       29.96S

$$

VAZ055>057-172100-
NORTH AND CENTRAL PIEDMONT

CITY           SKY/WX    TMP DP  RH WIND       PRES   REMARKS
FREDERICKSBRG* MOSUNNY   58  34  40 W9G17     29.96S
STAFFORD*      PTSUNNY   56  31  38 CALM      30.00S

$$

NCZ024-NYZ072-PAZ021-071-VAZ022-071-172100-
OTHER REGIONAL OBSERVATIONS

CITY           SKY/WX    TMP DP  RH WIND       PRES   REMARKS
NEW YORK CITY  CLOUDY    51  35  54 W9G17     29.83R
PHILADELPHIA   CLOUDY    51  34  52 W21G30    29.91R
PITTSBURGH     CLOUDY    33  25  72 SW12      30.06R WCI  24
ROANOKE        MOSUNNY   51  25  36 NW15      30.05S
RICHMOND       PTSUNNY   58  33  39 W9        29.97S
RALEIGH        MOSUNNY   59  36  42 W7        30.04S

$$

ANZ530>537-172100-
MARINE OBSERVATIONS

STATION/POSITION TIME  TEMP    WIND        PRES
                       AIR SEA DIR/SP/G
                 (UTC) (F)     (DEG/KT/KT) (MB)
THOMAS PT LIGHT  2000   51 43  300/ 15/ 16 1015.3R
BALT KEY BRIDGE  2000   50     280/ 21/ 24 1013.8F
COVE POINT       2000   51     340/ 11/ 14 1013.8R
LEWISETTA        2000   51 44  350/  3/  5 1014.0R
SOLOMONS ISLAND  2000      45                N/A
PINEY POINT      2000          310/  5/  5   N/A

$$




USA.gov is the U.S. government's official web portal to all federal, state and local government web resources and services.